QPF
0.00 0.00 0.00 0.00 0.00 0.00 0.00 0.00 0.00 0.00 0.00 0.00 0.00 0.00 0.00 0.00 0.00 0.00 0.00 0.00 0.00 0.00 0.00 0.00 0.00 0.00 0.00 0.00 0.00 0.00 0.00 0.00 0.00 0.00 0.00 0.00 0.00 0.00 0.00 0.00 0.00 0.00 0.00 0.00 0.00
0.00 0.00 0.00 0.00 0.00 0.00 0.00 0.00 0.00 0.00 0.00 0.00 0.00 0.00 0.00 0.00 0.00 0.00 0.00 0.00 0.00 0.00 0.00 0.00 0.00 0.00 0.00 0.00 0.01 0.00 0.00 0.00 0.00 0.00 0.00 0.00 0.00 0.00 0.00 0.00 0.00 0.00 0.00 0.00 0.00
0.00 0.00 0.00 0.00 0.00 0.00 0.00 0.00 0.00 0.00 0.00 0.00 0.00 0.00 0.00 0.00 0.00 0.00 0.00 0.00 0.00 0.00 0.00 0.00 0.00 0.00 0.01 0.01 0.01 0.01 0.00 0.00 0.00 0.00 0.00 0.00 0.00 0.00 0.00 0.00 0.00 0.00 0.00 0.00 0.00
0.00 0.00 0.00 0.00 0.00 0.00 0.00 0.00 0.00 0.00 0.00 0.00 0.00 0.00 0.01 0.00 0.00 0.00 0.00 0.00 0.00 0.00 0.00 0.00 0.00 0.00 0.01 0.01 0.01 0.02 0.00 0.00 0.00 0.00 0.00 0.00 0.00 0.00 0.00 0.00 0.00 0.00 0.00 0.00 0.00
0.00 0.00 0.00 0.00 0.00 0.00 0.00 0.00 0.00 0.00 0.00 0.00 0.00 0.00 0.00 0.00 0.00 0.00 0.00 0.00 0.00 0.00 0.00 0.00 0.00 0.00 0.00 0.00 0.01 0.02 0.01 0.01 0.00 0.00 0.00 0.00 0.00 0.00 0.00 0.00 0.00 0.00 0.00 0.00 0.00
0.00 0.00 0.00 0.01 0.01 0.01 0.01 0.01 0.01 0.00 0.01 0.00 0.00 0.00 0.00 0.00 0.00 0.00 0.00 0.00 0.00 0.00 0.00 0.00 0.00 0.00 0.00 0.00 0.00 0.01 0.01 0.00 0.00 0.00 0.00 0.00 0.00 0.00 0.00 0.00 0.00 0.00 0.00 0.00 0.00
0.01 0.00 0.00 0.00 0.01 0.00 0.01 0.01 0.01 0.00 0.01 0.01 0.00 0.01 0.00 0.00 0.00 0.00 0.00 0.00 0.00 0.00 0.00 0.00 0.00 0.00 0.00 0.00 0.00 0.00 0.01 0.01 0.00 0.00 0.00 0.00 0.00 0.00 0.00 0.00 0.00 0.00 0.00 0.00 0.00
0.00 0.00 0.00 0.00 0.00 0.00 0.00 0.00 0.00 0.00 0.00 0.01 0.01 0.01 0.00 0.00 0.00 0.00 0.00 0.00 0.00 0.00 0.00 0.00 0.00 0.00 0.00 0.00 0.00 0.00 0.03 0.01 0.00 0.00 0.00 0.00 0.00 0.00 0.00 0.00 0.00 0.00 0.00 0.00 0.00
0.00 0.00 0.00 0.00 0.00 0.00 0.00 0.00 0.00 0.00 0.00 0.00 0.01 0.00 0.00 0.00 0.00 0.00 0.00 0.00 0.00 0.00 0.00 0.00 0.00 0.00 0.00 0.00 0.00 0.00 0.01 0.02 0.01 0.00 0.02 0.01 0.00 0.00 0.00 0.00 0.00 0.00 0.00 0.00 0.00
0.00 0.00 0.00 0.00 0.00 0.00 0.00 0.00 0.00 0.00 0.00 0.00 0.01 0.01 0.00 0.00 0.00 0.00 0.00 0.00 0.00 0.00 0.00 0.00 0.00 0.00 0.00 0.00 0.00 0.00 0.00 0.00 0.02 0.01 0.04 0.01 0.00 0.00 0.00 0.00 0.00 0.00 0.00 0.00 0.00
0.00 0.00 0.00 0.00 0.00 0.00 0.00 0.00 0.00 0.00 0.00 0.00 0.00 0.00 0.00 0.00 0.00 0.00 0.00 0.00 0.00 0.00 0.00 0.00 0.00 0.00 0.00 0.00 0.00 0.00 0.00 0.00 0.00 0.01 0.06 0.02 0.01 0.00 0.00 0.00 0.00 0.00 0.00 0.00 0.00
0.00 0.00 0.00 0.00 0.00 0.00 0.00 0.00 0.00 0.00 0.00 0.00 0.00 0.00 0.00 0.00 0.00 0.00 0.00 0.00 0.01 0.00 0.00 0.01 0.00 0.00 0.00 0.00 0.00 0.00 0.00 0.00 0.00 0.00 0.04 0.02 0.01 0.00 0.00 0.00 0.00 0.00 0.00 0.00 0.00
0.00 0.00 0.00 0.00 0.00 0.00 0.00 0.00 0.00 0.00 0.00 0.00 0.00 0.00 0.00 0.00 0.00 0.00 0.00 0.00 0.01 0.01 0.00 0.00 0.00 0.00 0.00 0.00 0.00 0.00 0.00 0.00 0.00 0.01 0.03 0.07 0.06 0.01 0.00 0.00 0.00 0.00 0.00 0.00 0.00
0.00 0.00 0.00 0.00 0.00 0.00 0.00 0.00 0.00 0.00 0.00 0.00 0.00 0.00 0.00 0.00 0.00 0.00 0.00 0.00 0.01 0.01 0.01 0.02 0.00 0.00 0.00 0.00 0.00 0.00 0.00 0.00 0.00 0.05 0.07 0.03 0.07 0.01 0.00 0.00 0.00 0.00 0.00 0.00 0.00
0.00 0.00 0.00 0.00 0.00 0.00 0.00 0.00 0.00 0.00 0.00 0.00 0.00 0.00 0.00 0.00 0.00 0.00 0.00 0.00 0.01 0.01 0.01 0.02 0.00 0.00 0.00 0.00 0.00 0.00 0.00 0.00 0.02 0.05 0.11 0.10 0.11 0.01 0.00 0.00 0.00 0.00 0.00 0.00 0.00
0.00 0.00 0.00 0.00 0.00 0.00 0.00 0.00 0.00 0.00 0.00 0.00 0.00 0.00 0.00 0.00 0.00 0.01 0.01 0.02 0.03 0.02 0.02 0.01 0.00 0.00 0.00 0.00 0.00 0.00 0.01 0.02 0.07 0.16 0.28 0.14 0.11 0.04 0.00 0.00 0.00 0.00 0.00 0.00 0.00
0.00 0.00 0.00 0.00 0.00 0.00 0.00 0.00 0.00 0.00 0.00 0.00 0.00 0.00 0.00 0.00 0.01 0.01 0.01 0.02 0.01 0.03 0.03 0.02 0.03 0.01 0.00 0.00 0.01 0.01 0.05 0.07 0.17 0.27 0.22 0.03 0.07 0.04 0.00 0.00 0.00 0.00 0.00 0.00 0.00
0.00 0.00 0.00 0.00 0.00 0.00 0.00 0.00 0.00 0.00 0.00 0.00 0.00 0.00 0.00 0.00 0.00 0.01 0.03 0.03 0.02 0.08 0.13 0.10 0.05 0.02 0.02 0.01 0.00 0.02 0.03 0.06 0.12 0.12 0.11 0.02 0.04 0.01 0.00 0.00 0.00 0.00 0.00 0.00 0.00
0.00 0.00 0.00 0.00 0.00 0.00 0.00 0.00 0.00 0.00 0.00 0.00 0.00 0.00 0.00 0.00 0.00 0.01 0.02 0.05 0.10 0.20 0.29 0.20 0.12 0.02 0.04 0.02 0.01 0.03 0.02 0.01 0.14 0.17 0.23 0.11 0.02 0.00 0.00 0.00 0.00 0.00 0.00 0.00 0.00
0.00 0.00 0.00 0.00 0.00 0.00 0.00 0.00 0.00 0.00 0.00 0.00 0.00 0.00 0.00 0.00 0.00 0.01 0.01 0.03 0.06 0.16 0.38 0.39 0.31 0.07 0.10 0.07 0.02 0.09 0.01 0.03 0.18 0.31 0.17 0.05 0.01 0.00 0.00 0.00 0.00 0.00 0.00 0.00 0.00
0.00 0.00 0.00 0.00 0.00 0.00 0.00 0.00 0.00 0.00 0.00 0.00 0.00 0.00 0.00 0.01 0.00 0.01 0.01 0.01 0.03 0.06 0.27 0.58 0.33 0.11 0.25 0.16 0.03 0.11 0.15 0.05 0.17 0.11 0.15 0.03 0.01 0.00 0.00 0.00 0.00 0.00 0.00 0.00 0.00
0.00 0.00 0.00 0.00 0.00 0.00 0.00 0.00 0.00 0.00 0.00 0.00 0.00 0.00 0.01 0.01 0.01 0.02 0.02 0.02 0.01 0.03 0.10 0.45 0.21 0.10 0.19 0.15 0.02 0.01 0.02 0.07 0.19 0.23 0.07 0.01 0.00 0.00 0.00 0.00 0.00 0.00 0.00 0.00 0.00
0.00 0.00 0.00 0.00 0.00 0.00 0.00 0.00 0.00 0.00 0.00 0.00 0.00 0.00 0.02 0.03 0.03 0.01 0.00 0.00 0.00 0.00 0.03 0.24 0.20 0.03 0.03 0.02 0.01 0.00 0.02 0.09 0.11 0.09 0.06 0.01 0.00 0.00 0.00 0.00 0.00 0.00 0.00 0.00 0.00
0.00 0.00 0.00 0.00 0.00 0.00 0.00 0.00 0.00 0.00 0.00 0.00 0.00 0.00 0.01 0.00 0.02 0.02 0.00 0.00 0.00 0.00 0.01 0.11 0.28 0.14 0.03 0.01 0.01 0.01 0.01 0.02 0.11 0.13 0.02 0.01 0.00 0.00 0.00 0.00 0.00 0.00 0.00 0.00 0.00
0.00 0.00 0.00 0.00 0.00 0.00 0.00 0.00 0.00 0.00 0.00 0.00 0.00 0.00 0.00 0.00 0.00 0.00 0.00 0.00 0.00 0.00 0.00 0.01 0.13 0.26 0.18 0.11 0.08 0.10 0.09 0.08 0.09 0.13 0.14 0.05 0.01 0.02 0.01 0.00 0.00 0.00 0.00 0.00 0.00
0.00 0.00 0.00 0.00 0.00 0.00 0.00 0.00 0.00 0.00 0.00 0.00 0.00 0.00 0.00 0.00 0.00 0.00 0.01 0.01 0.00 0.00 0.00 0.00 0.02 0.08 0.14 0.17 0.16 0.09 0.08 0.11 0.12 0.14 0.14 0.12 0.13 0.13 0.13 0.03 0.01 0.00 0.00 0.00 0.00
0.00 0.00 0.00 0.00 0.00 0.00 0.00 0.00 0.00 0.00 0.00 0.00 0.00 0.00 0.00 0.00 0.00 0.00 0.00 0.00 0.02 0.02 0.01 0.00 0.01 0.01 0.04 0.11 0.15 0.06 0.08 0.09 0.13 0.14 0.16 0.19 0.18 0.16 0.14 0.07 0.07 0.03 0.00 0.01 0.00
MSLP
1020.90 1020.80 1020.67 1020.30 1020.08 1019.91 1019.77 1019.57 1019.42 1019.38 1019.42 1019.14 1018.92 1018.78 1018.58 1018.32 1018.13 1018.15 1018.06 1017.32 1016.86 1016.39 1016.38 1016.36 1015.88 1015.70 1015.58 1015.49 1015.54 1015.78 1016.30 1015.57 1014.70 1013.89 1013.09 1012.23 1011.74 1011.77 1011.87 1012.24 1012.57 1012.83 1013.29 1013.74 1015.00
1020.86 1020.68 1020.57 1020.39 1020.25 1019.91 1019.62 1019.50 1019.44 1019.26 1019.24 1019.18 1018.92 1018.73 1018.44 1018.26 1018.22 1017.82 1017.28 1016.20 1016.13 1016.49 1016.78 1016.82 1016.45 1016.10 1015.85 1015.64 1015.55 1015.60 1015.61 1015.21 1014.28 1013.50 1012.85 1012.50 1012.12 1011.74 1012.16 1012.45 1012.84 1013.06 1013.67 1014.02 1015.11
1020.93 1020.71 1020.56 1020.30 1020.15 1019.94 1019.73 1019.57 1019.40 1019.27 1019.11 1019.11 1018.87 1018.71 1018.53 1018.42 1018.40 1017.36 1016.64 1016.32 1016.07 1016.49 1016.85 1017.04 1017.02 1016.82 1016.47 1015.89 1015.60 1015.08 1014.92 1014.68 1014.08 1013.50 1012.91 1012.64 1012.42 1012.16 1011.97 1012.46 1012.26 1012.49 1013.53 1014.23 1015.03
1020.96 1020.76 1020.44 1020.25 1019.97 1019.81 1019.69 1019.47 1019.33 1019.18 1019.10 1019.00 1018.90 1018.76 1018.65 1018.72 1018.62 1017.01 1016.87 1016.71 1016.53 1016.61 1017.01 1017.30 1017.28 1017.23 1016.82 1016.34 1015.61 1015.57 1014.95 1014.56 1013.94 1013.48 1013.11 1012.86 1012.57 1012.35 1011.99 1011.78 1011.96 1012.11 1013.04 1013.94 1014.63
1020.90 1020.55 1020.33 1019.96 1019.68 1019.49 1019.38 1019.34 1019.21 1019.15 1019.03 1018.92 1018.88 1018.85 1018.95 1019.07 1018.35 1017.29 1017.12 1017.01 1016.70 1016.88 1017.20 1017.59 1017.64 1017.47 1017.18 1016.70 1016.25 1015.61 1015.17 1014.60 1013.92 1013.45 1013.22 1012.91 1012.77 1012.55 1011.88 1011.46 1011.66 1012.13 1012.77 1013.19 1013.92
1020.74 1020.40 1019.94 1019.80 1019.46 1019.15 1019.03 1019.02 1018.97 1018.94 1018.92 1018.86 1018.83 1018.78 1019.05 1019.04 1017.39 1017.43 1017.41 1017.29 1017.41 1017.43 1017.72 1017.80 1018.05 1017.88 1017.76 1017.33 1017.10 1016.59 1016.08 1014.90 1013.99 1013.54 1013.28 1013.15 1012.90 1012.90 1011.72 1011.61 1011.64 1012.22 1012.53 1012.85 1013.22
1020.58 1020.27 1019.91 1019.40 1019.09 1018.81 1018.81 1018.85 1018.84 1018.79 1018.81 1018.77 1018.76 1018.88 1018.91 1018.15 1017.20 1017.29 1017.68 1017.88 1017.98 1018.19 1018.21 1018.23 1018.24 1018.36 1018.37 1017.99 1017.36 1016.62 1016.30 1014.76 1013.51 1013.65 1013.51 1013.48 1012.79 1011.60 1011.85 1011.89 1011.69 1012.48 1012.65 1012.97 1013.16
1020.46 1020.34 1019.78 1019.18 1019.11 1018.83 1018.71 1018.71 1018.73 1018.73 1018.73 1018.71 1018.77 1019.04 1018.39 1017.41 1017.36 1017.44 1017.44 1017.81 1017.88 1018.07 1018.37 1018.32 1018.28 1018.60 1018.66 1018.48 1017.96 1017.41 1016.51 1014.95 1013.65 1013.82 1013.81 1013.93 1010.00 1011.38 1011.47 1011.94 1011.75 1011.91 1012.53 1012.84 1012.86
1020.29 1020.22 1019.72 1019.20 1019.21 1019.08 1018.85 1018.65 1018.55 1018.55 1018.66 1018.62 1018.90 1019.06 1018.31 1017.44 1017.54 1017.36 1017.44 1017.75 1017.91 1018.23 1018.25 1018.34 1018.48 1018.76 1018.93 1019.20 1019.11 1017.93 1016.21 1015.52 1014.43 1013.41 1013.87 1013.26 1010.06 1011.17 1011.41 1011.63 1011.79 1011.51 1012.08 1012.44 1012.63
1020.41 1020.21 1019.90 1019.40 1019.15 1019.14 1018.87 1018.47 1018.38 1018.49 1018.70 1018.61 1018.83 1019.34 1017.97 1017.55 1017.53 1017.48 1017.57 1017.68 1018.17 1018.50 1018.71 1018.82 1018.80 1018.86 1018.97 1019.36 1018.58 1018.34 1017.48 1016.39 1015.07 1014.12 1013.62 1012.88 1011.24 1011.44 1011.28 1011.29 1011.42 1011.49 1011.39 1012.09 1012.24
1020.65 1020.36 1019.89 1019.53 1019.37 1019.14 1019.13 1018.80 1019.18 1019.23 1018.98 1018.38 1018.21 1017.82 1017.60 1017.46 1017.43 1017.50 1017.48 1017.98 1018.28 1018.59 1018.84 1019.00 1018.99 1017.41 1018.37 1018.13 1017.95 1018.32 1017.82 1016.92 1015.33 1014.66 1014.51 1012.85 1011.89 1011.72 1011.24 1011.00 1010.94 1011.16 1011.26 1011.36 1011.60
1020.70 1020.56 1019.95 1019.41 1019.33 1019.07 1019.35 1019.56 1019.89 1020.13 1019.30 1018.13 1017.99 1018.06 1017.68 1017.65 1017.58 1017.20 1017.27 1017.83 1017.89 1017.98 1018.40 1018.71 1017.01 1017.95 1018.26 1018.52 1018.64 1018.58 1018.12 1017.08 1016.22 1015.13 1015.12 1013.49 1011.98 1011.24 1010.81 1010.30 1010.41 1010.56 1010.69 1010.51 1010.76
1020.64 1020.41 1019.96 1019.49 1019.41 1019.39 1019.70 1019.76 1019.70 1019.96 1020.01 1018.29 1017.90 1017.66 1017.41 1017.62 1017.09 1016.45 1016.97 1017.24 1017.41 1017.57 1017.82 1017.46 1016.36 1016.19 1017.44 1017.88 1018.05 1017.77 1017.90 1016.93 1016.74 1016.19 1015.17 1014.33 1011.47 1010.74 1009.64 1009.14 1009.20 1009.17 1009.43 1009.64 1009.63
1020.74 1020.29 1020.00 1019.60 1019.88 1019.93 1019.85 1019.50 1019.67 1019.84 1020.00 1018.78 1018.06 1017.47 1017.28 1017.31 1016.84 1016.05 1016.22 1016.81 1017.06 1016.94 1017.21 1016.69 1016.22 1016.41 1016.59 1016.78 1017.89 1017.36 1016.13 1016.55 1016.81 1016.90 1015.44 1014.49 1011.23 1009.63 1009.37 1008.38 1008.08 1008.07 1008.56 1008.65 1008.97
1020.40 1020.24 1019.99 1019.63 1020.30 1020.10 1019.98 1019.71 1019.73 1020.08 1020.01 1018.90 1018.29 1017.83 1017.47 1017.71 1016.76 1015.97 1015.96 1016.47 1016.30 1016.28 1016.59 1015.34 1015.45 1015.49 1015.58 1014.99 1016.32 1015.39 1016.19 1016.56 1016.85 1016.39 1016.03 1014.36 1014.07 1008.74 1008.29 1007.32 1006.48 1006.57 1007.14 1007.59 1007.65
1020.09 1020.07 1019.89 1020.27 1020.57 1020.14 1019.83 1019.84 1020.10 1020.84 1020.24 1019.26 1018.38 1018.05 1017.86 1017.18 1016.68 1016.13 1016.03 1016.29 1016.02 1015.94 1015.46 1014.92 1014.96 1014.97 1014.06 1014.58 1015.09 1015.29 1016.17 1016.22 1016.44 1016.32 1014.91 1012.22 1013.54 1008.93 1007.02 1004.76 1004.83 1005.35 1005.73 1006.24 1006.83
1019.74 1019.90 1019.88 1020.29 1020.47 1020.04 1020.14 1020.49 1021.46 1021.65 1021.12 1020.20 1019.41 1018.76 1018.33 1017.35 1016.65 1016.19 1015.68 1015.49 1015.59 1015.62 1014.76 1014.30 1013.54 1013.82 1013.91 1014.19 1014.67 1015.20 1015.80 1015.68 1015.67 1014.29 1011.69 1010.87 1011.49 1008.85 1005.64 1004.76 1004.04 1004.09 1004.39 1004.66 1005.61
1019.58 1019.62 1019.93 1020.31 1020.25 1020.23 1020.56 1021.50 1022.60 1022.90 1021.87 1020.66 1019.67 1018.84 1018.16 1017.15 1016.31 1015.71 1015.32 1014.91 1014.90 1015.02 1014.55 1013.81 1012.03 1012.33 1012.34 1012.33 1012.93 1013.88 1014.48 1013.95 1013.15 1011.85 1009.63 1010.60 1009.97 1007.09 1005.63 1004.83 1004.19 1004.05 1004.03 1004.35 1004.61
1019.59 1020.01 1020.37 1020.52 1020.44 1020.46 1021.43 1022.74 1022.93 1022.87 1021.74 1021.00 1019.82 1019.26 1018.48 1017.34 1016.92 1015.67 1014.97 1014.57 1014.58 1014.85 1014.93 1013.48 1011.80 1010.84 1011.26 1011.64 1012.42 1013.13 1013.51 1012.86 1013.01 1011.21 1010.52 1008.69 1008.45 1006.10 1005.85 1005.58 1005.54 1005.24 1005.19 1004.65 1004.19
1020.03 1020.45 1020.74 1020.58 1020.50 1021.06 1022.08 1023.18 1022.84 1022.06 1021.36 1020.83 1020.36 1019.63 1018.79 1017.64 1016.80 1015.69 1014.64 1014.20 1014.18 1014.23 1014.30 1013.22 1011.60 1010.51 1010.96 1011.92 1011.99 1012.30 1012.21 1012.66 1012.64 1011.13 1008.96 1006.43 1007.32 1007.45 1007.07 1006.98 1006.98 1006.64 1006.48 1005.44 1004.24
1020.18 1021.01 1020.95 1020.78 1020.84 1021.86 1023.14 1023.48 1022.38 1021.20 1020.92 1020.88 1020.46 1019.71 1018.75 1017.98 1016.89 1015.83 1014.83 1014.11 1014.04 1013.56 1013.31 1012.74 1012.05 1011.17 1011.22 1011.04 1010.49 1011.40 1011.66 1011.17 1010.93 1010.60 1008.68 1007.69 1008.76 1008.59 1008.71 1008.53 1008.36 1007.72 1007.38 1005.21 1005.00
1020.61 1022.04 1021.32 1021.10 1022.12 1023.45 1023.96 1022.93 1022.05 1021.02 1020.40 1020.29 1020.13 1019.62 1018.87 1018.19 1017.14 1016.25 1015.24 1014.91 1014.29 1013.83 1012.88 1012.28 1011.86 1011.01 1010.58 1010.26 1010.29 1009.82 1009.71 1010.34 1010.08 1009.48 1008.85 1008.04 1009.53 1009.28 1009.22 1008.99 1008.97 1008.55 1007.58 1007.04 1007.01
1021.33 1022.04 1021.56 1021.44 1022.95 1023.94 1023.59 1022.95 1021.85 1020.91 1020.21 1019.80 1019.51 1019.39 1019.08 1018.42 1017.85 1016.67 1015.75 1014.65 1014.32 1013.92 1013.11 1012.14 1011.35 1011.08 1010.62 1010.25 1009.57 1009.38 1009.22 1009.13 1009.24 1009.64 1008.18 1008.27 1009.81 1009.61 1009.33 1009.40 1009.19 1008.69 1007.91 1007.83 1007.79
1021.87 1022.99 1022.81 1022.70 1023.18 1023.45 1023.76 1022.92 1021.74 1020.49 1020.05 1019.65 1019.36 1019.03 1019.04 1018.58 1018.30 1017.29 1016.31 1015.01 1014.45 1014.03 1013.35 1012.28 1011.89 1011.15 1011.58 1010.93 1010.49 1009.89 1009.55 1009.67 1009.76 1009.12 1008.80 1008.73 1009.55 1009.92 1009.87 1009.81 1009.57 1009.59 1008.81 1009.16 1008.68
1021.85 1023.17 1023.29 1023.66 1023.55 1023.39 1023.00 1022.49 1021.72 1020.64 1019.99 1019.43 1019.28 1019.40 1019.49 1019.21 1018.61 1017.85 1016.85 1015.89 1014.84 1014.59 1013.62 1013.08 1012.27 1011.91 1011.59 1011.09 1011.01 1010.74 1010.35 1010.04 1010.04 1010.01 1009.28 1009.31 1009.72 1010.34 1010.50 1010.68 1011.09 1010.99 1010.05 1009.86 1009.72
1021.37 1022.68 1023.29 1023.33 1023.04 1023.08 1022.83 1022.28 1021.38 1020.63 1020.14 1019.55 1019.44 1019.30 1019.44 1019.59 1019.42 1019.00 1018.24 1017.23 1016.18 1015.13 1014.35 1013.58 1012.87 1012.27 1011.72 1011.63 1011.50 1011.43 1011.43 1010.99 1010.81 1010.83 1010.49 1010.63 1010.97 1011.04 1011.62 1011.81 1011.53 1011.32 1011.31 1011.26 1011.26
1020.81 1021.11 1021.74 1023.15 1022.92 1023.01 1022.19 1021.31 1020.61 1020.59 1020.02 1019.75 1019.64 1019.80 1019.49 1019.23 1019.21 1018.82 1018.60 1017.99 1017.37 1016.45 1015.29 1014.32 1013.87 1013.26 1012.72 1012.15 1011.60 1012.49 1013.29 1012.89 1012.86 1012.62 1012.18 1012.29 1012.60 1012.34 1012.63 1012.89 1012.83 1012.70 1012.53 1012.46 1012.55
Thickness
5588 5585 5584 5585 5584 5584 5584 5585 5585 5584 5583 5584 5586 5586 5587 5589 5590 5591 5591 5600 5604 5609 5611 5613 5620 5623 5626 5628 5633 5631 5618 5620 5636 5643 5655 5672 5674 5680 5686 5683 5689 5694 5693 5695 5688
5582 5581 5580 5580 5579 5578 5579 5578 5578 5578 5577 5577 5578 5578 5579 5581 5582 5582 5590 5598 5601 5599 5600 5601 5607 5612 5614 5619 5622 5621 5615 5624 5643 5650 5653 5661 5665 5670 5673 5677 5681 5687 5686 5690 5684
5575 5575 5573 5573 5573 5572 5571 5571 5571 5571 5570 5569 5569 5569 5570 5571 5569 5577 5585 5589 5592 5590 5590 5591 5594 5598 5602 5612 5613 5621 5617 5629 5639 5645 5651 5654 5656 5662 5667 5666 5684 5687 5679 5681 5678
5568 5568 5569 5567 5566 5566 5564 5564 5564 5563 5563 5562 5561 5561 5560 5560 5563 5576 5576 5577 5579 5581 5581 5580 5583 5585 5591 5594 5609 5601 5616 5624 5635 5640 5644 5645 5651 5653 5660 5674 5685 5689 5681 5679 5676
5562 5562 5561 5562 5561 5560 5559 5557 5556 5555 5554 5554 5553 5552 5551 5544 5549 5563 5565 5567 5571 5570 5570 5568 5570 5577 5579 5584 5590 5595 5606 5618 5629 5633 5636 5641 5641 5645 5654 5669 5681 5682 5679 5681 5680
5556 5556 5557 5554 5555 5554 5553 5550 5549 5547 5545 5545 5544 5543 5539 5529 5553 5553 5554 5557 5557 5558 5557 5559 5557 5562 5565 5570 5573 5577 5583 5601 5620 5624 5629 5630 5632 5633 5656 5662 5670 5672 5675 5679 5680
5550 5550 5550 5551 5550 5549 5546 5543 5541 5539 5537 5536 5535 5533 5532 5530 5544 5545 5543 5543 5543 5543 5544 5546 5549 5549 5550 5559 5562 5574 5573 5593 5612 5618 5616 5619 5618 5633 5649 5654 5660 5661 5665 5671 5674
5544 5542 5544 5546 5541 5541 5539 5536 5533 5530 5527 5526 5525 5523 5525 5534 5536 5536 5536 5535 5536 5534 5532 5534 5539 5538 5540 5541 5545 5555 5564 5574 5600 5601 5603 5601 5633 5640 5644 5642 5651 5658 5657 5663 5670
5540 5536 5537 5538 5533 5530 5529 5528 5526 5523 5520 5518 5517 5514 5516 5526 5525 5528 5528 5526 5525 5522 5523 5524 5524 5523 5527 5519 5513 5530 5552 5560 5569 5591 5589 5595 5631 5632 5630 5632 5638 5651 5653 5658 5664
5532 5530 5530 5531 5527 5522 5521 5522 5521 5518 5515 5513 5513 5508 5518 5519 5520 5520 5517 5516 5512 5508 5505 5505 5506 5500 5505 5496 5499 5513 5518 5539 5551 5571 5579 5589 5605 5620 5622 5624 5630 5639 5649 5651 5658
5524 5523 5525 5524 5519 5516 5515 5514 5509 5508 5508 5508 5515 5517 5516 5516 5514 5511 5511 5506 5503 5499 5490 5491 5491 5508 5493 5502 5509 5499 5498 5507 5544 5553 5542 5577 5592 5595 5613 5614 5619 5627 5636 5648 5655
5518 5517 5519 5520 5515 5512 5509 5505 5500 5497 5498 5507 5508 5505 5508 5508 5505 5505 5504 5498 5496 5496 5491 5487 5497 5492 5490 5484 5483 5481 5480 5490 5514 5535 5530 5554 5568 5591 5599 5612 5613 5622 5630 5644 5653
5514 5514 5515 5514 5509 5507 5502 5500 5497 5494 5485 5503 5503 5503 5504 5500 5502 5504 5498 5494 5492 5490 5485 5487 5505 5505 5486 5476 5469 5468 5464 5485 5489 5511 5518 5522 5557 5575 5600 5616 5619 5626 5635 5641 5653
5510 5511 5510 5511 5503 5499 5498 5498 5495 5491 5488 5492 5499 5500 5498 5495 5495 5502 5497 5491 5485 5488 5485 5489 5497 5487 5475 5467 5455 5453 5483 5480 5480 5477 5489 5516 5544 5572 5583 5602 5614 5626 5626 5639 5649
5509 5509 5507 5506 5496 5496 5495 5494 5490 5484 5452 5495 5491 5488 5489 5482 5491 5495 5492 5485 5487 5485 5483 5497 5485 5479 5473 5476 5459 5465 5467 5463 5463 5468 5470 5500 5490 5566 5586 5597 5618 5631 5636 5642 5653
5509 5507 5505 5499 5493 5493 5492 5488 5484 5458 5441 5467 5485 5480 5478 5485 5487 5488 5485 5480 5481 5482 5484 5489 5481 5472 5477 5471 5461 5464 5450 5455 5455 5457 5454 5516 5489 5550 5586 5627 5635 5634 5639 5646 5647
5508 5505 5502 5496 5490 5490 5486 5480 5452 5449 5461 5468 5462 5467 5469 5474 5479 5480 5486 5486 5485 5478 5480 5483 5479 5466 5467 5453 5447 5444 5436 5399 5439 5457 5478 5534 5512 5541 5599 5616 5632 5637 5642 5650 5651
5506 5505 5500 5493 5490 5486 5479 5459 5422 5404 5417 5460 5471 5467 5470 5481 5485 5487 5483 5492 5483 5473 5475 5475 5491 5470 5465 5463 5451 5437 5439 5451 5466 5475 5525 5528 5516 5562 5597 5610 5624 5636 5639 5642 5646
5504 5501 5495 5490 5486 5482 5464 5415 5433 5419 5448 5454 5461 5441 5438 5474 5472 5483 5486 5490 5474 5468 5471 5481 5480 5474 5463 5457 5457 5438 5434 5475 5464 5490 5514 5540 5550 5589 5588 5597 5605 5613 5617 5631 5647
5497 5494 5489 5486 5483 5474 5451 5449 5428 5451 5459 5457 5451 5449 5451 5464 5470 5480 5487 5492 5487 5477 5457 5465 5472 5467 5457 5450 5453 5458 5478 5461 5466 5484 5535 5555 5561 5564 5574 5584 5589 5596 5600 5618 5635
5492 5482 5485 5483 5478 5466 5433 5415 5441 5460 5457 5451 5442 5446 5455 5455 5465 5474 5485 5490 5482 5482 5476 5459 5465 5470 5458 5459 5466 5464 5458 5485 5490 5490 5525 5557 5542 5551 5550 5559 5568 5577 5588 5614 5620
5482 5462 5480 5478 5451 5413 5418 5435 5459 5461 5458 5451 5444 5444 5449 5451 5460 5467 5473 5470 5478 5477 5480 5466 5472 5488 5480 5463 5471 5494 5499 5503 5494 5519 5522 5537 5521 5539 5544 5555 5561 5568 5582 5592 5595
5469 5464 5476 5475 5437 5426 5445 5449 5455 5460 5460 5457 5452 5446 5440 5447 5453 5459 5463 5479 5478 5474 5478 5482 5489 5493 5490 5494 5496 5504 5512 5521 5519 5512 5538 5548 5523 5544 5549 5554 5559 5564 5576 5581 5584
5463 5452 5457 5458 5446 5439 5423 5432 5445 5459 5454 5455 5453 5452 5447 5443 5443 5452 5459 5472 5474 5477 5478 5484 5483 5495 5502 5504 5506 5511 5507 5514 5519 5531 5530 5541 5537 5542 5545 5546 5551 5552 5563 5563 5570
5456 5449 5446 5439 5439 5449 5452 5450 5454 5437 5454 5455 5450 5445 5438 5423 5421 5441 5453 5458 5470 5469 5475 5477 5488 5486 5487 5494 5497 5503 5507 5508 5517 5520 5542 5539 5542 5536 5536 5537 5530 5536 5547 5550 5555
5455 5451 5444 5438 5456 5457 5452 5434 5451 5455 5451 5452 5446 5441 5435 5428 5425 5424 5436 5447 5455 5462 5469 5475 5484 5485 5494 5489 5492 5495 5487 5502 5505 5508 5519 5522 5519 5522 5514 5514 5519 5526 5530 5531 5536
5461 5463 5463 5454 5452 5442 5434 5454 5457 5451 5452 5450 5446 5435 5435 5435 5428 5429 5431 5440 5444 5454 5463 5473 5475 5472 5493 5489 5498 5492 5473 5480 5475 5473 5492 5512 5501 5507 5493 5497 5499 5506 5514 5516 5518